Weather in Bayarak

Russia / Kurgan Oblast     55°57′16″N   65°24′56″E
temp.,
°C
wind,
m/s
gust,
m/s
humid.,
%
clouds,
%
prec.,
mm/h
press.,
hPa
HPBL,
m
13 june, sun
sun1323:00+14sse116460 0.0 102410
02:00+13sw226473 0.0 102414
05:00+13wsw226774 0.0 102523
08:00+19sw225191 0.0 1025310
11:00+23s3341100 0.0 10251321
14:00+25ssw343747 0.0 10242079
17:00+25s443548 0.0 10232134
20:00+21s33565 0.0 102341
14 june, mon
mon1423:00+16ssw22596 0.0 102411
02:00+15ssw33625 0.0 102424
05:00+14ssw35655 0.0 102469
08:00+21ssw46512 0.0 1024296
11:00+26sw463365 0.0 10231644
14:00+28sw562842 0.0 10222830
17:00+28wsw563243 0.0 10212531
20:00+23wsw33565 0.0 102044
15 june, tue
tue1523:00+19sw465755 0.0 102075
02:00+18sw486089 0.0 1019122
05:00+18sw4106154 0.0 1019182
08:00+23wsw5105126 0.0 1018401
11:00+27wsw683799 0.0 10171081
14:00+29wsw6834100 0.0 10161702
17:00+28wsw673653 0.0 10151965
20:00+24wsw355765 0.0 101589
16 june, wed
wed1623:00+20wsw3361100 0.0 101526
02:00+19sw466181 0.0 101493
05:00+18nw3673100 0.0 1014121
08:00+23s346279 0.0 1014295
11:00+27sw3445100 0.0 1013934
14:00+30w46345 0.0 10122484
17:00+30w4736100 0.0 10102568
20:00+20n61073100 0.1 1012300
17 june, thu
thu1723:00+17se348843 1.8 101053
02:00+16wsw228828 0.3 101011
05:00+17ssw348885 0.3 100979
08:00+23sw466272 0.0 1007360
11:00+28sw5741100 0.0 10051248
14:00+27ssw4544100 0.0 1003848
17:00+27s384584 0.1 999986
20:00+23nw10136726 0.3 998606